• In Hungary
  • List of Countries
  • For 7 days
  • Water Temperature
  • Satellite Maps
  • Weather Map
  • News
  • Weather Widgets
  • user-avatar
    Login

    Hourly Weather Kotokel

    Today, 22 September, Saturday

    Time Temperature Precipitation Wind Pressure Humidity
    00:00 +5°C° 0.1 mm 1 mps 725 mmHg 95%
    01:00 +5°C° 0 mm 1 mps 725 mmHg 96%
    02:00 +5°C° 0 mm 1 mps 726 mmHg 96%
    03:00 +5°C° 0 mm 1 mps 726 mmHg 96%
    04:00 +4°C° 0 mm 1 mps 727 mmHg 96%
    05:00 +5°C° 0 mm 1 mps 727 mmHg 94%
    06:00 +6°C° 0 mm 1 mps 727 mmHg 93%
    07:00 +6°C° 0 mm 1 mps 728 mmHg 91%
    08:00 +8°C° 0 mm 1 mps 728 mmHg 84%
    09:00 +10°C° 0 mm 1 mps 728 mmHg 77%
    10:00 +12°C° 0 mm 1 mps 728 mmHg 70%
    11:00 +12°C° 0 mm 2 mps 728 mmHg 68%
    12:00 +13°C° 0 mm 2 mps 727 mmHg 65%
    13:00 +14°C° 0 mm 2 mps 727 mmHg 62%
    14:00 +13°C° 0 mm 2 mps 727 mmHg 64%
    15:00 +13°C° 0 mm 1 mps 727 mmHg 66%
    16:00 +12°C° 0 mm 1 mps 727 mmHg 68%
    17:00 +10°C° 0 mm 1 mps 727 mmHg 75%
    18:00 +8°C° 0 mm 1 mps 727 mmHg 82%
    19:00 +5°C° 0 mm 0 mps 727 mmHg 90%
    20:00 +4°C° 0 mm 0 mps 727 mmHg 89%
    21:00 +5°C° 0 mm 1 mps 727 mmHg 89%
    22:00 +5°C° 0 mm 1 mps 727 mmHg 88%
    23:00 +5°C° 0 mm 1 mps 727 mmHg 88%

    Tomorrow, 23 September, Sunday

    Time Temperature Precipitation Wind Pressure Humidity
    00:00 +5°C° 0 mm 1 mps 727 mmHg 87%
    01:00 +4°C° 0 mm 1 mps 727 mmHg 86%
    02:00 +4°C° 0 mm 1 mps 727 mmHg 86%
    03:00 +4°C° 0 mm 1 mps 727 mmHg 87%
    04:00 +4°C° 0 mm 1 mps 727 mmHg 87%
    05:00 +4°C° 0 mm 2 mps 727 mmHg 85%
    06:00 +5°C° 0 mm 2 mps 727 mmHg 82%
    07:00 +6°C° 0 mm 2 mps 727 mmHg 80%
    08:00 +9°C° 0 mm 2 mps 727 mmHg 73%
    09:00 +12°C° 0 mm 2 mps 727 mmHg 65%
    10:00 +15°C° 0 mm 2 mps 726 mmHg 58%
    11:00 +14°C° 0 mm 3 mps 726 mmHg 55%
    12:00 +16°C° 0 mm 3 mps 725 mmHg 52%
    13:00 +17°C° 0 mm 3 mps 725 mmHg 49%
    14:00 +16°C° 0 mm 3 mps 724 mmHg 52%
    15:00 +16°C° 0 mm 3 mps 724 mmHg 54%
    16:00 +14°C° 0 mm 3 mps 724 mmHg 56%
    17:00 +12°C° 0 mm 3 mps 724 mmHg 64%
    18:00 +10°C° 0 mm 2 mps 724 mmHg 72%
    19:00 +8°C° 0 mm 2 mps 724 mmHg 80%
    20:00 +7°C° 0 mm 2 mps 724 mmHg 81%
    21:00 +7°C° 0 mm 2 mps 724 mmHg 83%
    22:00 +6°C° 0 mm 2 mps 724 mmHg 84%
    23:00 +6°C° 0 mm 2 mps 724 mmHg 85%

    Day after tomorrow, 24 September, Monday

    Time Temperature Precipitation Wind Pressure Humidity
    00:00 +6°C° 0 mm 2 mps 724 mmHg 86%
    01:00 +6°C° 0 mm 2 mps 724 mmHg 87%
    02:00 +6°C° 0 mm 2 mps 724 mmHg 88%
    03:00 +5°C° 0 mm 2 mps 724 mmHg 89%
    04:00 +5°C° 0 mm 2 mps 724 mmHg 89%
    05:00 +6°C° 0 mm 2 mps 724 mmHg 86%
    06:00 +7°C° 0 mm 2 mps 724 mmHg 83%
    07:00 +7°C° 0 mm 2 mps 724 mmHg 80%
    08:00 +10°C° 0 mm 2 mps 724 mmHg 71%
    09:00 +13°C° 0 mm 2 mps 723 mmHg 62%
    10:00 +16°C° 0 mm 2 mps 723 mmHg 52%
    11:00 +16°C° 0 mm 2 mps 723 mmHg 49%
    12:00 +17°C° 0 mm 2 mps 722 mmHg 47%
    13:00 +18°C° 0 mm 2 mps 722 mmHg 44%
    14:00 +17°C° 0 mm 2 mps 722 mmHg 47%
    15:00 +16°C° 0 mm 2 mps 721 mmHg 50%
    16:00 +16°C° 0 mm 2 mps 721 mmHg 54%
    17:00 +13°C° 0 mm 2 mps 721 mmHg 60%
    18:00 +10°C° 0 mm 2 mps 721 mmHg 67%
    19:00 +8°C° 0 mm 2 mps 721 mmHg 74%
    20:00 +8°C° 0 mm 2 mps 721 mmHg 74%
    21:00 +8°C° 0 mm 2 mps 721 mmHg 74%
    22:00 +7°C° 0 mm 2 mps 722 mmHg 74%
    23:00 +7°C° 0 mm 2 mps 721 mmHg 73%

    25 September, Tuesday

    Time Temperature Precipitation Wind Pressure Humidity
    00:00 +7°C° 0 mm 2 mps 721 mmHg 73%
    01:00 +7°C° 0 mm 2 mps 721 mmHg 73%
    02:00 +6°C° 0 mm 2 mps 721 mmHg 74%
    03:00 +6°C° 0 mm 2 mps 721 mmHg 75%
    04:00 +6°C° 0 mm 2 mps 721 mmHg 75%
    05:00 +7°C° 0 mm 2 mps 721 mmHg 73%
    06:00 +8°C° 0 mm 2 mps 721 mmHg 71%
    07:00 +8°C° 0 mm 2 mps 722 mmHg 69%
    08:00 +12°C° 0 mm 2 mps 721 mmHg 62%
    09:00 +15°C° 0 mm 2 mps 721 mmHg 56%
    10:00 +17°C° 0 mm 2 mps 721 mmHg 49%
    11:00 +18°C° 0 mm 2 mps 721 mmHg 47%
    12:00 +19°C° 0 mm 2 mps 720 mmHg 45%
    13:00 +19°C° 0 mm 2 mps 720 mmHg 43%
    14:00 +18°C° 0 mm 2 mps 720 mmHg 47%
    15:00 +18°C° 0 mm 2 mps 720 mmHg 50%
    16:00 +17°C° 0 mm 2 mps 720 mmHg 53%
    17:00 +14°C° 0 mm 2 mps 720 mmHg 62%
    18:00 +12°C° 0 mm 1 mps 720 mmHg 71%
    19:00 +10°C° 0 mm 1 mps 720 mmHg 79%
    20:00 +10°C° 0 mm 1 mps 720 mmHg 80%
    21:00 +9°C° 0 mm 1 mps 720 mmHg 80%
    22:00 +9°C° 0 mm 1 mps 721 mmHg 81%
    23:00 +9°C° 0 mm 1 mps 721 mmHg 81%

    26 September, Wednesday

    Time Temperature Precipitation Wind Pressure Humidity
    00:00 +9°C° 0 mm 1 mps 721 mmHg 81%
    01:00 +8°C° 0 mm 0 mps 721 mmHg 82%
    02:00 +9°C° 0 mm 1 mps 721 mmHg 83%
    03:00 +8°C° 0 mm 1 mps 721 mmHg 84%
    04:00 +8°C° 0 mm 1 mps 722 mmHg 85%
    05:00 +9°C° 0 mm 1 mps 722 mmHg 83%
    06:00 +9°C° 0 mm 1 mps 722 mmHg 80%
    07:00 +10°C° 0 mm 1 mps 723 mmHg 77%
    08:00 +12°C° 0 mm 2 mps 723 mmHg 68%
    09:00 +14°C° 0 mm 2 mps 723 mmHg 60%
    10:00 +16°C° 0 mm 2 mps 723 mmHg 51%
    11:00 +16°C° 0 mm 3 mps 723 mmHg 51%
    12:00 +16°C° 0 mm 3 mps 722 mmHg 51%
    13:00 +16°C° 0 mm 3 mps 722 mmHg 51%
    14:00 +16°C° 0 mm 3 mps 722 mmHg 54%
    15:00 +14°C° 0 mm 3 mps 722 mmHg 58%
    16:00 +13°C° 0 mm 3 mps 723 mmHg 61%
    17:00 +13°C° 0 mm 2 mps 723 mmHg 71%
    18:00 +10°C° 0 mm 2 mps 723 mmHg 80%
    19:00 +8°C° 0 mm 2 mps 724 mmHg 90%
    20:00 +8°C° 0 mm 2 mps 724 mmHg 91%
    21:00 +8°C° 0 mm 2 mps 724 mmHg 92%
    22:00 +8°C° 0 mm 2 mps 725 mmHg 94%
    23:00 +7°C° 0 mm 2 mps 725 mmHg 94%

    27 September, Thursday

    Time Temperature Precipitation Wind Pressure Humidity
    00:00 +7°C° 0 mm 2 mps 725 mmHg 95%
    01:00 +6°C° 0 mm 2 mps 724 mmHg 95%
    02:00 +6°C° 0 mm 2 mps 724 mmHg 96%
    03:00 +5°C° 0 mm 3 mps 724 mmHg 96%
    04:00 +4°C° 0 mm 3 mps 724 mmHg 96%
    05:00 +5°C° 0 mm 3 mps 724 mmHg 93%
    06:00 +5°C° 0 mm 3 mps 724 mmHg 90%
    07:00 +6°C° 0 mm 4 mps 724 mmHg 87%
    08:00 +7°C° 0.3 mm 4 mps 724 mmHg 85%
    09:00 +8°C° 0.3 mm 5 mps 724 mmHg 83%
    10:00 +9°C° 0.3 mm 5 mps 723 mmHg 80%
    11:00 +8°C° 0.7 mm 5 mps 723 mmHg 83%
    12:00 +8°C° 0.7 mm 5 mps 723 mmHg 87%
    13:00 +7°C° 0.7 mm 5 mps 723 mmHg 90%
    14:00 +8°C° 0.1 mm 6 mps 723 mmHg 88%
    15:00 +8°C° 0.1 mm 6 mps 723 mmHg 86%
    16:00 +8°C° 0.1 mm 6 mps 723 mmHg 84%
    17:00 +8°C° 0.2 mm 5 mps 723 mmHg 86%
    18:00 +7°C° 0.2 mm 5 mps 724 mmHg 87%
    19:00 +7°C° 0.2 mm 5 mps 724 mmHg 88%
    20:00 +7°C° 0 mm 5 mps 724 mmHg 89%
    21:00 +6°C° 0 mm 5 mps 724 mmHg 89%
    22:00 +6°C° 0 mm 4 mps 724 mmHg 90%
    23:00 +5°C° 0.1 mm 5 mps 724 mmHg 90%
    Show more